GW1277 Weather Reports


Display with metric or nautical units.
time (UTC)temp
F
wind
direction
speed
MPH
gust
MPH
rain 1hr
in
rain 24hr
in
rain mn
in
humidity
%
barometer
mb
20260504185015 76 331 4.0 13.0 0.00 0.00 0.00 34 1008.2
20260504184530 75 333 9.0 13.0 0.00 0.00 0.00 37 1008.3
20260504184015 75 336 6.0 12.0 0.00 0.00 0.00 38 1008.3
20260504183517 75 336 8.0 12.0 0.00 0.00 0.00 37 1008.5
20260504183034 74 315 6.0 12.0 0.00 0.00 0.00 38 1008.5
20260504182516 74 317 6.0 11.0 0.00 0.00 0.00 39 1008.6
20260504182015 74 338 7.0 11.0 0.00 0.00 0.00 40 1008.6
20260504181542 74 360 6.0 13.0 0.00 0.00 0.00 39 1008.5
20260504181015 73 302 6.0 13.0 0.00 0.00 0.00 39 1008.5
20260504180515 72 304 3.0 9.0 0.00 0.00 0.00 39 1008.7
20260504180033 72 324 4.0 11.0 0.00 0.00 0.00 40 1008.8
20260504175515 71 324 6.0 11.0 0.00 0.00 0.00 42 1008.9
20260504175015 71 334 6.0 11.0 0.00 0.00 0.00 41 1008.8
20260504174530 70 352 4.0 10.0 0.00 0.00 0.00 45 1008.9
20260504174015 70 305 5.0 10.0 0.00 0.00 0.00 43 1009.0
20260504173515 70 330 4.0 9.0 0.00 0.00 0.00 43 1008.9
20260504173032 69 319 4.0 8.0 0.00 0.00 0.00 42 1009.1
20260504172514 69 349 4.0 8.0 0.00 0.00 0.00 43 1009.2
20260504172017 68 326 1.0 5.0 0.00 0.00 0.00 44 1009.2
20260504171535 68 319 2.0 6.0 0.00 0.00 0.00 46 1009.2
20260504171016 68 351 3.0 6.0 0.00 0.00 0.00 45 1009.2
20260504170517 67 341 3.0 9.0 0.00 0.00 0.00 44 1009.2
20260504151015 53 323 4.0 5.0 0.00 0.00 0.00 72 1010.0
20260504150513 53 330 3.0 5.0 0.00 0.00 0.00 74 1010.0
20260504141015 45 321 2.0 5.0 0.00 0.00 0.00 86 1009.9
20260504140512 44 336 3.0 5.0 0.00 0.00 0.00 87 1010.0
20260504130512 38 0 0.0 0.0 0.00 0.00 0.00 91 1009.8
20260504110516 41 0 0.0 1.0 0.00 0.00 0.00 89 1009.1
20260504100517 41 145 1.0 3.0 0.00 0.00 0.00 87 1008.9
20260504081538 43 76 0.0 2.0 0.00 0.00 0.00 85 1008.7
20260504081016 43 76 0.0 3.0 0.00 0.00 0.00 85 1008.7
20260504080516 43 0 1.0 4.0 0.00 0.00 0.00 85 1008.8
20260504050517 53 162 1.0 2.0 0.00 0.00 0.00 75 1008.5
20260504045516 54 0 0.0 2.0 0.00 0.00 0.00 73 1008.5
20260504045017 54 0 0.0 4.0 0.00 0.00 0.00 75 1008.3
20260504044542 54 0 0.0 6.0 0.00 0.00 0.00 75 1008.3
20260504044015 54 116 3.0 8.0 0.00 0.00 0.00 73 1008.3
20260504043515 55 130 3.0 8.0 0.00 0.00 0.00 72 1008.3
20260504043040 56 92 3.0 6.0 0.00 0.00 0.00 70 1008.3
20260504042516 57 163 1.0 4.0 0.00 0.00 0.00 69 1008.2
20260504042015 57 249 1.0 4.0 0.00 0.00 0.00 68 1008.3
20260504041535 57 115 1.0 4.0 0.00 0.00 0.00 67 1008.2
20260504041015 58 115 2.0 4.0 0.00 0.00 0.00 66 1008.1
20260504040519 58 169 2.0 4.0 0.00 0.00 0.00 65 1007.9
20260504040044 59 265 0.0 3.0 0.00 0.00 0.00 66 1008.1
20260504035516 59 265 1.0 5.0 0.00 0.00 0.00 66 1008.0
20260504035015 59 119 1.0 5.0 0.00 0.00 0.00 64 1007.9
20260504034533 60 169 3.0 5.0 0.00 0.00 0.00 63 1007.8
20260504034015 61 173 2.0 3.0 0.00 0.00 0.00 62 1007.7
20260504033515 61 123 1.0 2.0 0.00 0.00 0.00 63 1007.7
20260504033032 61 123 0.0 2.0 0.00 0.00 0.00 63 1007.6
20260504032516 62 98 0.0 2.0 0.00 0.00 0.00 62 1007.6
20260504032021 63 98 0.0 4.0 0.00 0.00 0.00 60 1007.5
20260504031532 64 98 2.0 4.0 0.00 0.00 0.00 57 1007.4
20260504031015 65 113 3.0 4.0 0.00 0.00 0.00 54 1007.4
20260504030515 65 184 1.0 4.0 0.00 0.00 0.00 52 1007.3
20260504030033 66 0 0.0 4.0 0.00 0.00 0.00 54 1007.3
20260504025515 67 184 1.0 4.0 0.00 0.00 0.00 52 1007.3
20260504025015 67 0 0.0 2.0 0.00 0.00 0.00 54 1007.3
20260504024530 68 0 0.0 3.0 0.00 0.00 0.00 52 1007.3
20260504024016 69 184 1.0 3.0 0.00 0.00 0.00 53 1007.1
20260504023515 70 184 2.0 3.0 0.00 0.00 0.00 54 1007.1
20260504023034 72 184 1.0 4.0 0.00 0.00 0.00 53 1007.2
20260504022515 75 184 2.0 4.0 0.00 0.00 0.00 50 1007.1
20260504022014 77 0 0.0 3.0 0.00 0.00 0.00 46 1007.1
20260504021534 77 0 0.0 4.0 0.00 0.00 0.00 45 1007.2
20260504021015 78 184 2.0 4.0 0.00 0.00 0.00 35 1007.2
20260504020514 79 184 2.0 3.0 0.00 0.00 0.00 35 1007.1
20260504020034 80 184 1.0 3.0 0.00 0.00 0.00 36 1007.1
20260504015515 82 192 1.0 2.0 0.00 0.00 0.00 35 1007.1
20260504015015 83 0 0.0 0.0 0.00 0.00 0.00 40 1007.2
20260504014535 84 0 0.0 1.0 0.00 0.00 0.00 34 1007.2
20260504014015 83 0 0.0 3.0 0.00 0.00 0.00 27 1007.3
20260504013515 83 0 0.0 4.0 0.00 0.00 0.00 27 1007.3
20260504013040 83 0 1.0 4.0 0.00 0.00 0.00 26 1007.3
20260504012518 83 312 1.0 4.0 0.00 0.00 0.00 26 1007.4
20260504012015 83 309 0.0 3.0 0.00 0.00 0.00 25 1007.4
20260504011536 83 309 0.0 4.0 0.00 0.00 0.00 24 1007.6
20260504011014 83 309 2.0 4.0 0.00 0.00 0.00 24 1007.5
20260504010518 83 314 1.0 4.0 0.00 0.00 0.00 24 1007.5
20260504010034 82 292 1.0 4.0 0.00 0.00 0.00 25 1007.6
20260504005516 82 317 2.0 5.0 0.00 0.00 0.00 29 1007.7
20260504005015 82 344 2.0 5.0 0.00 0.00 0.00 29 1007.8
20260504004532 82 346 3.0 5.0 0.00 0.00 0.00 31 1007.8
20260504004017 83 339 1.0 4.0 0.00 0.00 0.00 24 1007.9
20260504003515 82 303 1.0 8.0 0.00 0.00 0.00 27 1007.9
20260504003033 82 339 4.0 8.0 0.00 0.00 0.00 28 1008.0
20260504002515 82 326 4.0 8.0 0.00 0.00 0.00 24 1008.1
20260504002013 83 339 1.0 4.0 0.00 0.00 0.00 29 1008.1
20260504001533 83 330 2.0 4.0 0.00 0.00 0.00 24 1008.2
20260504001016 83 0 1.0 4.0 0.00 0.00 0.00 26 1008.3
20260504000516 83 65 1.0 6.0 0.00 0.00 0.00 24 1008.3
20260504000031 83 328 2.0 7.0 0.00 0.00 0.00 26 1008.3
20260503235515 83 309 3.0 7.0 0.00 0.00 0.00 22 1008.4
20260503235015 82 281 2.0 6.0 0.00 0.00 0.00 26 1008.5
20260503234533 82 352 3.0 6.0 0.00 0.00 0.00 24 1008.5
20260503234015 82 331 1.0 8.0 0.00 0.00 0.00 27 1008.5
20260503233515 81 313 2.0 8.0 0.00 0.00 0.00 24 1008.6
20260503233035 81 342 4.0 10.0 0.00 0.00 0.00 26 1008.7
20260503232515 81 305 5.0 10.0 0.00 0.00 0.00 25 1008.8
20260503232015 81 352 6.0 11.0 0.00 0.00 0.00 27 1008.8
20260503231534 81 18 6.0 11.0 0.00 0.00 0.00 29 1008.9
20260503231015 81 330 6.0 11.0 0.00 0.00 0.00 26 1009.0
20260503230517 81 360 5.0 10.0 0.00 0.00 0.00 26 1009.0
20260503230034 81 360 6.0 10.0 0.00 0.00 0.00 27 1009.2
20260503225517 81 13 5.0 18.0 0.00 0.00 0.00 28 1009.1
20260503225015 81 333 9.0 18.0 0.00 0.00 0.00 30 1009.3
20260503224534 81 329 9.0 14.0 0.00 0.00 0.00 26 1009.3
20260503224019 81 346 8.0 14.0 0.00 0.00 0.00 26 1009.5
20260503223515 81 333 3.0 13.0 0.00 0.00 0.00 30 1009.6
20260503223032 80 355 7.0 13.0 0.00 0.00 0.00 27 1009.7
20260503222515 80 21 9.0 13.0 0.00 0.00 0.00 29 1009.8
20260503222015 80 5 9.0 12.0 0.00 0.00 0.00 30 1009.8
20260503221531 80 5 8.0 14.0 0.00 0.00 0.00 29 1010.1
20260503221015 80 26 7.0 14.0 0.00 0.00 0.00 28 1010.1
20260503220515 80 26 7.0 14.0 0.00 0.00 0.00 27 1010.2
20260503220036 80 329 9.0 14.0 0.00 0.00 0.00 28 1010.3
20260503215516 80 40 8.0 14.0 0.00 0.00 0.00 32 1010.4
20260503215018 80 341 9.0 16.0 0.00 0.00 0.00 29 1010.4
20260503214537 80 351 10.0 16.0 0.00 0.00 0.00 28 1010.4
20260503214015 80 343 10.0 16.0 0.00 0.00 0.00 25 1010.5
20260503213515 80 360 7.0 14.0 0.00 0.00 0.00 27 1010.5
20260503213041 80 352 5.0 13.0 0.00 0.00 0.00 26 1010.6
20260503212516 80 360 3.0 12.0 0.00 0.00 0.00 28 1010.7
20260503212033 80 16 8.0 16.0 0.00 0.00 0.00 30 1010.8
20260503211537 80 351 9.0 16.0 0.00 0.00 0.00 28 1010.9
20260503211015 79 347 8.0 16.0 0.00 0.00 0.00 28 1010.9
20260503210519 79 11 5.0 14.0 0.00 0.00 0.00 29 1010.9
20260503210034 79 310 6.0 12.0 0.00 0.00 0.00 28 1011.0
20260503205515 78 24 6.0 12.0 0.00 0.00 0.00 28 1011.1
20260503205015 78 93 1.0 9.0 0.00 0.00 0.00 27 1011.1
20260503204533 78 52 3.0 11.0 0.00 0.00 0.00 26 1011.3
20260503204013 78 22 3.0 11.0 0.00 0.00 0.00 29 1011.3
20260503203515 78 5 6.0 11.0 0.00 0.00 0.00 29 1011.3
20260503203035 78 28 5.0 10.0 0.00 0.00 0.00 25 1011.4
20260503202515 78 352 3.0 12.0 0.00 0.00 0.00 26 1011.4
20260503202017 78 348 5.0 12.0 0.00 0.00 0.00 27 1011.5
20260503201532 78 346 7.0 12.0 0.00 0.00 0.00 30 1011.6
20260503201015 77 336 4.0 11.0 0.00 0.00 0.00 28 1011.6
20260503200516 77 308 6.0 13.0 0.00 0.00 0.00 25 1011.8
20260503200034 77 317 6.0 13.0 0.00 0.00 0.00 32 1011.8
20260503195515 77 349 6.0 14.0 0.00 0.00 0.00 29 1011.9
20260503195015 77 5 7.0 14.0 0.00 0.00 0.00 29 1012.0
20260503194534 76 338 9.0 16.0 0.00 0.00 0.00 28 1012.3
20260503194015 76 352 10.0 16.0 0.00 0.00 0.00 30 1012.3
20260503193516 76 300 11.0 15.0 0.00 0.00 0.00 27 1012.5
20260503193032 76 312 6.0 16.0 0.00 0.00 0.00 31 1012.5
20260503192515 76 352 10.0 16.0 0.00 0.00 0.00 31 1012.7
20260503192015 76 332 11.0 16.0 0.00 0.00 0.00 30 1012.7
20260503191534 75 344 9.0 15.0 0.00 0.00 0.00 30 1012.8
20260503191015 75 340 9.0 15.0 0.00 0.00 0.00 32 1012.8
20260503190518 75 325 9.0 14.0 0.00 0.00 0.00 33 1013.0
20260503190044 74 329 8.0 12.0 0.00 0.00 0.00 30 1013.0
20260503185514 74 327 8.0 12.0 0.00 0.00 0.00 33 1013.1